When you browse on this site, cookies collect data to enhance your experience and personalize the content and advertising you see.
Visit our Privacy Policy to learn more. By continuing to use the site, you agree to this use of cookies and data.
  • In Lithuania
  • List of Countries
  • For 7 days
  • Water Temperature
  • Weather Map
  • Weather Widgets
  • user-avatar
    Login

    Hourly Weather Dorchester

    Today, 24 February, Monday

    Time Temperature Precipitation Wind Pressure Humidity
    00:00 +6°C° 0 mm 2 mps 762 mmHg 77%
    01:00 +5°C° 0.3 mm 3 mps 761 mmHg 81%
    02:00 +5°C° 0.3 mm 4 mps 760 mmHg 86%
    03:00 +5°C° 0.3 mm 5 mps 759 mmHg 91%
    04:00 +5°C° 0.1 mm 6 mps 757 mmHg 92%
    05:00 +8°C° 0.1 mm 6 mps 756 mmHg 93%
    06:00 +8°C° 0 mm 5 mps 754 mmHg 91%
    07:00 +9°C° 0 mm 7 mps 753 mmHg 89%
    08:00 +9°C° 0 mm 8 mps 753 mmHg 88%
    09:00 +8°C° 0 mm 10 mps 752 mmHg 87%
    10:00 +8°C° 1 mm 10 mps 751 mmHg 88%
    11:00 +8°C° 1 mm 10 mps 751 mmHg 90%
    12:00 +9°C° 1 mm 10 mps 750 mmHg 91%
    13:00 +9°C° 0.4 mm 11 mps 750 mmHg 89%
    14:00 +9°C° 0.4 mm 11 mps 749 mmHg 88%
    15:00 +9°C° 0.4 mm 11 mps 748 mmHg 86%
    16:00 +8°C° 0 mm 10 mps 749 mmHg 84%
    17:00 +7°C° 0 mm 9 mps 749 mmHg 82%
    18:00 +6°C° 0 mm 8 mps 749 mmHg 80%
    19:00 +6°C° 0 mm 7 mps 749 mmHg 80%
    20:00 +5°C° 0 mm 7 mps 749 mmHg 81%
    21:00 +4°C° 0 mm 6 mps 750 mmHg 81%
    22:00 +4°C° 0 mm 6 mps 750 mmHg 82%
    23:00 +3°C° 0 mm 6 mps 750 mmHg 83%

    Tomorrow, 25 February, Tuesday

    Time Temperature Precipitation Wind Pressure Humidity
    00:00 +2°C° 0 mm 6 mps 750 mmHg 84%
    01:00 +2°C° 0 mm 6 mps 750 mmHg 84%
    02:00 +2°C° 0 mm 6 mps 749 mmHg 83%
    03:00 +1°C° 0 mm 5 mps 749 mmHg 83%
    04:00 +1°C° 0 mm 5 mps 748 mmHg 84%
    05:00 +1°C° 0 mm 5 mps 748 mmHg 86%
    06:00 +1°C° 0 mm 5 mps 748 mmHg 88%
    07:00 +2°C° 0 mm 6 mps 747 mmHg 86%
    08:00 +2°C° 0 mm 6 mps 747 mmHg 84%
    09:00 +3°C° 0 mm 7 mps 746 mmHg 82%
    10:00 +3°C° 0.1 mm 7 mps 746 mmHg 81%
    11:00 +4°C° 0.1 mm 7 mps 746 mmHg 79%
    12:00 +4°C° 0.1 mm 7 mps 746 mmHg 77%
    13:00 +4°C° 0.2 mm 7 mps 745 mmHg 74%
    14:00 +5°C° 0.2 mm 7 mps 744 mmHg 71%
    15:00 +5°C° 0.2 mm 7 mps 743 mmHg 68%
    16:00 +3°C° 0.6 mm 7 mps 743 mmHg 73%
    17:00 +2°C° 0.6 mm 7 mps 742 mmHg 78%
    18:00 0°C° 0.6 mm 7 mps 742 mmHg 83%
    19:00 -1°C° 0 mm 7 mps 742 mmHg 83%
    20:00 -1°C° 0 mm 7 mps 742 mmHg 83%
    21:00 -2°C° 0 mm 8 mps 742 mmHg 83%
    22:00 -2°C° 0 mm 7 mps 742 mmHg 84%
    23:00 -2°C° 0 mm 7 mps 743 mmHg 84%

    Day after tomorrow, 26 February, Wednesday

    Time Temperature Precipitation Wind Pressure Humidity
    00:00 -2°C° 0 mm 7 mps 743 mmHg 85%
    01:00 -2°C° 0.1 mm 7 mps 743 mmHg 86%
    02:00 -2°C° 0.1 mm 7 mps 743 mmHg 86%
    03:00 -2°C° 0.1 mm 7 mps 744 mmHg 87%
    04:00 -2°C° 0 mm 6 mps 744 mmHg 87%
    05:00 -2°C° 0 mm 6 mps 745 mmHg 88%
    06:00 -2°C° 0 mm 6 mps 745 mmHg 88%
    07:00 -1°C° 0 mm 6 mps 746 mmHg 84%
    08:00 0°C° 0 mm 7 mps 747 mmHg 81%
    09:00 0°C° 0 mm 8 mps 748 mmHg 77%
    10:00 +1°C° 0.1 mm 8 mps 749 mmHg 74%
    11:00 +2°C° 0.1 mm 9 mps 750 mmHg 71%
    12:00 +3°C° 0.1 mm 9 mps 751 mmHg 67%
    13:00 +3°C° 0 mm 9 mps 751 mmHg 65%
    14:00 +4°C° 0 mm 8 mps 751 mmHg 62%
    15:00 +4°C° 0 mm 8 mps 752 mmHg 59%
    16:00 +3°C° 0 mm 7 mps 752 mmHg 65%
    17:00 +1°C° 0 mm 5 mps 752 mmHg 70%
    18:00 0°C° 0 mm 4 mps 753 mmHg 75%
    19:00 0°C° 0 mm 4 mps 753 mmHg 78%
    20:00 0°C° 0 mm 4 mps 752 mmHg 81%
    21:00 -1°C° 0 mm 4 mps 752 mmHg 84%
    22:00 0°C° 0 mm 4 mps 752 mmHg 84%
    23:00 0°C° 0 mm 4 mps 752 mmHg 85%

    27 February, Thursday

    Time Temperature Precipitation Wind Pressure Humidity
    00:00 +1°C° 0 mm 3 mps 752 mmHg 86%
    01:00 +1°C° 0 mm 3 mps 751 mmHg 87%
    02:00 +1°C° 0 mm 3 mps 750 mmHg 88%
    03:00 +1°C° 0 mm 3 mps 750 mmHg 89%
    04:00 +2°C° 0.2 mm 2 mps 749 mmHg 92%
    05:00 +2°C° 0.2 mm 2 mps 748 mmHg 94%
    06:00 +3°C° 0.2 mm 1 mps 747 mmHg 97%
    07:00 +2°C° 0.5 mm 2 mps 747 mmHg 97%
    08:00 +2°C° 0.5 mm 2 mps 747 mmHg 97%
    09:00 +1°C° 0.5 mm 3 mps 746 mmHg 97%
    10:00 +2°C° 0.1 mm 3 mps 746 mmHg 97%
    11:00 +2°C° 0.1 mm 3 mps 747 mmHg 97%
    12:00 +2°C° 0.1 mm 3 mps 747 mmHg 96%
    13:00 +2°C° 0 mm 3 mps 747 mmHg 93%
    14:00 +3°C° 0 mm 3 mps 748 mmHg 90%
    15:00 +3°C° 0 mm 3 mps 748 mmHg 87%
    16:00 +3°C° 0 mm 3 mps 749 mmHg 88%
    17:00 +3°C° 0 mm 2 mps 750 mmHg 89%
    18:00 +2°C° 0 mm 2 mps 750 mmHg 89%
    19:00 +2°C° 0 mm 2 mps 751 mmHg 90%
    20:00 +1°C° 0 mm 2 mps 751 mmHg 90%
    21:00 +1°C° 0 mm 2 mps 752 mmHg 90%
    22:00 +1°C° 0 mm 2 mps 752 mmHg 90%
    23:00 +1°C° 0 mm 2 mps 753 mmHg 89%

    28 February, Friday

    Time Temperature Precipitation Wind Pressure Humidity
    00:00 +2°C° 0 mm 1 mps 753 mmHg 89%
    01:00 +1°C° 0 mm 2 mps 753 mmHg 90%
    02:00 +1°C° 0 mm 2 mps 752 mmHg 90%
    03:00 +1°C° 0 mm 2 mps 752 mmHg 91%
    04:00 +1°C° 0.2 mm 3 mps 751 mmHg 91%
    05:00 +1°C° 0.2 mm 4 mps 750 mmHg 92%
    06:00 +1°C° 0.2 mm 4 mps 749 mmHg 93%
    07:00 +2°C° 1 mm 5 mps 748 mmHg 94%
    08:00 +3°C° 1 mm 6 mps 747 mmHg 95%
    09:00 +4°C° 1 mm 6 mps 745 mmHg 96%
    10:00 +5°C° 1.9 mm 7 mps 744 mmHg 95%
    11:00 +6°C° 1.9 mm 7 mps 743 mmHg 95%
    12:00 +8°C° 1.9 mm 7 mps 741 mmHg 95%
    13:00 +9°C° 0.1 mm 8 mps 741 mmHg 91%
    14:00 +10°C° 0.1 mm 8 mps 740 mmHg 87%
    15:00 +10°C° 0.1 mm 8 mps 740 mmHg 82%
    16:00 +9°C° 0.1 mm 7 mps 741 mmHg 85%
    17:00 +7°C° 0.1 mm 6 mps 741 mmHg 87%
    18:00 +6°C° 0.1 mm 5 mps 741 mmHg 89%
    19:00 +5°C° 0 mm 5 mps 741 mmHg 90%
    20:00 +5°C° 0 mm 5 mps 742 mmHg 92%
    21:00 +5°C° 0 mm 5 mps 742 mmHg 94%
    22:00 +5°C° 0 mm 5 mps 741 mmHg 94%
    23:00 +3°C° 0 mm 5 mps 740 mmHg 94%

    29 February, Saturday

    Time Temperature Precipitation Wind Pressure Humidity
    00:00 +3°C° 0 mm 5 mps 740 mmHg 94%
    01:00 +3°C° 0.3 mm 5 mps 737 mmHg 95%
    02:00 +5°C° 0.3 mm 4 mps 735 mmHg 96%
    03:00 +5°C° 0.3 mm 4 mps 733 mmHg 97%
    04:00 +5°C° 2.2 mm 5 mps 732 mmHg 96%
    05:00 +3°C° 2.2 mm 7 mps 731 mmHg 95%
    06:00 +2°C° 2.2 mm 8 mps 729 mmHg 94%
    07:00 +1°C° 1.7 mm 9 mps 731 mmHg 93%
    08:00 -2°C° 1.7 mm 11 mps 732 mmHg 92%
    09:00 -3°C° 1.7 mm 12 mps 733 mmHg 91%
    10:00 -2°C° 0 mm 11 mps 735 mmHg 86%
    11:00 0°C° 0 mm 10 mps 737 mmHg 80%
    12:00 +1°C° 0 mm 9 mps 738 mmHg 75%
    13:00 +1°C° 0.1 mm 10 mps 738 mmHg 74%
    14:00 +1°C° 0.1 mm 10 mps 739 mmHg 72%
    15:00 +1°C° 0.1 mm 11 mps 739 mmHg 71%
    16:00 +1°C° 0.1 mm 10 mps 740 mmHg 75%
    17:00 0°C° 0.1 mm 10 mps 740 mmHg 79%
    18:00 0°C° 0.1 mm 10 mps 740 mmHg 84%
    19:00 -1°C° 0 mm 9 mps 741 mmHg 83%
    20:00 -1°C° 0 mm 8 mps 741 mmHg 82%
    21:00 -1°C° 0 mm 7 mps 742 mmHg 82%
    22:00 -2°C° 0 mm 7 mps 742 mmHg 82%
    23:00 -2°C° 0 mm 7 mps 742 mmHg 82%
    Show more